Location: Unspecified
(43.1408°N, 0.0000°E)
Time: 21:55:57
(UTC+00:00)

Altair - All Passes

Search period start: 04 April 2026 00:00
Search period end: 14 April 2026 00:00
Orbit: 1502 x 1682 km, 47.2° (Epoch: 29 March)

Date Brightness Start Highest point End Pass type
(mag) Time Alt. Az. Time Alt. Az. Time Alt. Az.
4 Apr - 00:42:06 10° W 00:47:04 16° SW 00:52:03 10° SSW visible
4 Apr - 13:53:21 10° S 14:00:28 23° SE 14:07:23 10° E daylight
4 Apr - 15:54:12 10° SW 16:03:57 66° SSE 16:13:22 10° ENE daylight
4 Apr - 17:59:02 10° W 18:08:48 74° NNW 18:18:14 10° ENE daylight
4 Apr - 20:04:40 10° WNW 20:14:16 76° NNE 20:23:32 10° E visible
4 Apr - 22:09:45 10° WNW 22:18:53 59° SW 22:27:49 10° SE visible
5 Apr - 00:16:24 10° W 00:22:00 18° SW 00:27:37 10° SSW visible
5 Apr - 13:28:42 10° S 13:35:20 20° SE 13:41:51 10° E daylight
5 Apr - 15:29:01 10° SW 15:38:45 62° SE 15:48:07 10° ENE daylight
5 Apr - 17:33:42 10° W 17:43:31 75° NNW 17:52:58 10° ENE daylight
5 Apr - 19:39:21 10° WNW 19:48:59 74° N 19:58:16 10° E visible
5 Apr - 21:44:28 10° WNW 21:53:42 63° SW 22:02:43 10° SE visible
5 Apr - 23:50:46 10° W 23:56:57 20° SW 00:03:05 10° S visible
6 Apr - 13:04:06 10° SSE 13:10:14 18° SE 13:16:15 10° E daylight
6 Apr - 15:03:52 10° SW 15:13:32 58° SE 15:22:52 10° ENE daylight
6 Apr - 17:08:22 10° WSW 17:18:14 77° NNW 17:27:44 10° ENE daylight
6 Apr - 19:14:02 10° WNW 19:23:42 73° N 19:33:00 10° E visible
6 Apr - 21:19:11 10° WNW 21:28:32 67° SSW 21:37:36 10° SE visible
6 Apr - 23:25:13 10° W 23:31:52 22° SW 23:38:27 10° S visible
7 Apr - 12:39:38 10° SSE 12:45:08 16° SE 12:50:32 10° E daylight
7 Apr - 14:38:44 10° SW 14:48:20 54° SE 14:57:37 10° ENE daylight
7 Apr - 16:43:02 10° WSW 16:52:56 79° NNW 17:02:29 10° ENE daylight
7 Apr - 18:48:43 10° WNW 18:58:24 72° N 19:07:44 10° E visible
7 Apr - 20:53:54 10° WNW 21:03:20 71° SSW 21:12:28 10° SE visible
7 Apr - 22:59:44 10° W 23:06:47 25° SW 23:13:45 10° S visible
8 Apr - 12:15:20 10° SSE 12:20:02 14° ESE 12:24:41 10° E daylight
8 Apr - 14:13:37 10° SSW 14:23:09 51° SE 14:32:21 10° ENE daylight
8 Apr - 16:17:42 10° WSW 16:27:40 82° NNW 16:37:14 10° ENE daylight
8 Apr - 18:23:23 10° WNW 18:33:07 71° N 18:42:28 10° E daylight
8 Apr - 20:28:37 10° WNW 20:38:08 75° SSW 20:47:19 10° SE visible
8 Apr - 22:34:17 10° WNW 22:41:42 27° SW 22:49:00 10° S visible
9 Apr - 11:51:16 10° SE 11:54:57 13° ESE 11:58:35 10° E daylight
9 Apr - 13:48:32 10° SSW 13:57:57 47° SE 14:07:05 10° ENE daylight
9 Apr - 15:52:23 10° WSW 16:02:23 84° NNW 16:12:00 10° ENE daylight
9 Apr - 17:58:03 10° W 18:07:48 70° N 18:17:11 10° E daylight
9 Apr - 20:03:20 10° WNW 20:12:55 79° SSW 20:22:09 10° ESE visible
9 Apr - 22:08:51 10° WNW 22:16:36 30° SW 22:24:12 10° S visible
10 Apr - 11:27:49 10° SE 11:29:52 11° ESE 11:31:54 10° ESE daylight
10 Apr - 13:23:28 10° SSW 13:32:46 44° SE 13:41:47 10° ENE daylight
10 Apr - 15:27:04 10° WSW 15:37:06 87° NNW 15:46:45 10° ENE daylight
10 Apr - 17:32:42 10° W 17:42:31 70° N 17:51:55 10° E daylight
10 Apr - 19:38:03 10° WNW 19:47:41 83° SSW 19:56:58 10° ESE visible
10 Apr - 21:43:27 10° WNW 21:51:29 33° SW 21:59:21 10° SSE visible
11 Apr - 12:58:26 10° SSW 13:07:35 41° SE 13:16:29 10° ENE daylight
11 Apr - 15:01:46 10° WSW 15:11:49 90° SSE 15:21:31 10° ENE daylight
11 Apr - 17:07:21 10° W 17:17:11 70° N 17:26:38 10° E daylight
11 Apr - 19:12:45 10° WNW 19:22:27 86° SSW 19:31:46 10° ESE visible
11 Apr - 21:18:05 10° WNW 21:26:22 36° SW 21:34:28 10° SSE visible
12 Apr - 12:33:27 10° SSW 12:42:25 38° SE 12:51:10 10° ENE daylight
12 Apr - 14:36:30 10° WSW 14:46:33 87° SSE 14:56:16 10° ENE daylight
12 Apr - 16:42:00 10° W 16:51:53 70° N 17:01:22 10° E daylight
12 Apr - 18:47:28 10° WNW 18:57:12 90° SSW 19:06:34 10° ESE visible
12 Apr - 20:52:43 10° WNW 21:01:15 39° SW 21:09:32 10° SSE visible
13 Apr - 12:08:29 10° SSW 12:17:15 35° SE 12:25:49 10° ENE daylight
13 Apr - 14:11:13 10° WSW 14:21:17 83° SSE 14:31:02 10° ENE daylight
13 Apr - 16:16:39 10° W 16:26:34 70° N 16:36:06 10° E daylight
13 Apr - 18:22:10 10° WNW 18:31:57 87° NNE 18:41:20 10° ESE daylight
13 Apr - 20:27:22 10° WNW 20:36:07 42° SW 20:44:35 10° SSE visible
